Location: Kapla
(46.2483°N, 15.0094°E)
Time: 21:02:10
(UTC+00:00)

Cosmos 1666 - Pass Details

Date: 03 March 2021
Orbit: 497 x 518 km, 82.5° (Epoch: 22 April)

Event Time Altitude Azimuth Distance (km) Brightness Sun altitude
Rises 18:27:54 0° 183° (S) 2,571 6.2 -17.8°
Reaches altitude 10° 18:30:00 10° 182° (S) 1,694 5.2 -18.2°
Maximum altitude 18:33:41 74° 97° (E) 523 2.4 -18.8°
Drops below altitude 10° 18:37:26 10° 12° (NNE) 1,715 5.3 -19.4°
Sets 18:39:34 0° 11° (N) 2,607 6.3 -19.8°
